owner,sensor,date,latitude,longitude,vertical_datum,sea_water_temperature,qcFlag 
WAVCIS,ioos:station:WAVCIS:CSI03:1,2017-04-01T00:00:00Z,29.4412,-92.0613,10.0,-14.39,11144222 
WAVCIS,ioos:station:WAVCIS:CSI03:1,2017-04-01T01:00:00Z,29.4412,-92.0613,10.0,-14.36,11144222 
WAVCIS,ioos:station:WAVCIS:CSI03:1,2017-04-01T02:00:00Z,29.4412,-92.0613,10.0,-14.85,11144222 
WAVCIS,ioos:station:WAVCIS:CSI03:1,2017-04-01T03:00:00Z,29.4412,-92.0613,10.0,-13.99,11144222 
WAVCIS,ioos:station:WAVCIS:CSI03:1,2017-04-01T04:00:00Z,29.4412,-92.0613,10.0,-14.09,11144222 
WAVCIS,ioos:station:WAVCIS:CSI03:1,2017-04-01T05:00:00Z,29.4412,-92.0613,10.0,-13.92,11144222 
WAVCIS,ioos:station:WAVCIS:CSI03:1,2017-04-01T06:00:00Z,29.4412,-92.0613,10.0,-13.96,11144222 
WAVCIS,ioos:station:WAVCIS:CSI03:1,2017-04-01T07:00:00Z,29.4412,-92.0613,10.0,-13.47,11144222 
WAVCIS,ioos:station:WAVCIS:CSI03:1,2017-04-01T08:00:00Z,29.4412,-92.0613,10.0,-13.29,11144222 
WAVCIS,ioos:station:WAVCIS:CSI03:1,2017-04-01T09:00:00Z,29.4412,-92.0613,10.0,-13.03,11144222 
WAVCIS,ioos:station:WAVCIS:CSI03:1,2017-04-01T10:00:00Z,29.4412,-92.0613,10.0,-13.26,11144222 
WAVCIS,ioos:station:WAVCIS:CSI03:1,2017-04-01T11:00:00Z,29.4412,-92.0613,10.0,-13.49,11144222 
WAVCIS,ioos:station:WAVCIS:CSI03:1,2017-04-01T12:00:00Z,29.4412,-92.0613,10.0,-13.84,11144222 
WAVCIS,ioos:station:WAVCIS:CSI03:1,2017-04-01T13:00:00Z,29.4412,-92.0613,10.0,-14.16,11144222 
WAVCIS,ioos:station:WAVCIS:CSI03:1,2017-04-01T14:00:00Z,29.4412,-92.0613,10.0,-13.86,11144222 
WAVCIS,ioos:station:WAVCIS:CSI03:1,2017-04-01T15:00:00Z,29.4412,-92.0613,10.0,-13.88,11144222 
WAVCIS,ioos:station:WAVCIS:CSI03:1,2017-04-01T16:00:00Z,29.4412,-92.0613,10.0,-14.21,11144222 
WAVCIS,ioos:station:WAVCIS:CSI03:1,2017-04-01T17:00:00Z,29.4412,-92.0613,10.0,-14.39,11144222 
WAVCIS,ioos:station:WAVCIS:CSI03:1,2017-04-01T18:00:00Z,29.4412,-92.0613,10.0,-13.86,11144222 
WAVCIS,ioos:station:WAVCIS:CSI03:1,2017-04-01T19:00:00Z,29.4412,-92.0613,10.0,-13.8,11144222 
WAVCIS,ioos:station:WAVCIS:CSI03:1,2017-04-01T20:00:00Z,29.4412,-92.0613,10.0,-13.65,11144222 
WAVCIS,ioos:station:WAVCIS:CSI03:1,2017-04-01T21:00:00Z,29.4412,-92.0613,10.0,-13.41,11144222 
WAVCIS,ioos:station:WAVCIS:CSI03:1,2017-04-01T22:00:00Z,29.4412,-92.0613,10.0,-13.5,11144222 
WAVCIS,ioos:station:WAVCIS:CSI03:1,2017-04-01T23:00:00Z,29.4412,-92.0613,10.0,-13.64,11144222 
WAVCIS,ioos:station:WAVCIS:CSI03:1,2017-04-02T00:00:00Z,29.4412,-92.0613,10.0,-13.88,11144222 
WAVCIS,ioos:station:WAVCIS:CSI03:1,2017-04-02T01:00:00Z,29.4412,-92.0613,10.0,-13.46,11144222 
WAVCIS,ioos:station:WAVCIS:CSI03:1,2017-04-02T02:00:00Z,29.4412,-92.0613,10.0,-13.86,11144222 
WAVCIS,ioos:station:WAVCIS:CSI03:1,2017-04-02T03:00:00Z,29.4412,-92.0613,10.0,-14.23,11144222 
WAVCIS,ioos:station:WAVCIS:CSI03:1,2017-04-02T04:00:00Z,29.4412,-92.0613,10.0,-13.91,11144222 
WAVCIS,ioos:station:WAVCIS:CSI03:1,2017-04-02T05:00:00Z,29.4412,-92.0613,10.0,-14.04,11144222 
WAVCIS,ioos:station:WAVCIS:CSI03:1,2017-04-02T06:00:00Z,29.4412,-92.0613,10.0,-14.06,11144222 
WAVCIS,ioos:station:WAVCIS:CSI03:1,2017-04-02T07:00:00Z,29.4412,-92.0613,10.0,-14.05,11144222 
WAVCIS,ioos:station:WAVCIS:CSI03:1,2017-04-02T08:00:00Z,29.4412,-92.0613,10.0,-14.73,11144222 
WAVCIS,ioos:station:WAVCIS:CSI03:1,2017-04-02T09:00:00Z,29.4412,-92.0613,10.0,-15.1,11144222 
WAVCIS,ioos:station:WAVCIS:CSI03:1,2017-04-02T10:00:00Z,29.4412,-92.0613,10.0,-15.12,11144222 
WAVCIS,ioos:station:WAVCIS:CSI03:1,2017-04-02T11:00:00Z,29.4412,-92.0613,10.0,-15.43,11144222 
WAVCIS,ioos:station:WAVCIS:CSI03:1,2017-04-02T12:00:00Z,29.4412,-92.0613,10.0,-15.27,11144222 
WAVCIS,ioos:station:WAVCIS:CSI03:1,2017-04-02T13:00:00Z,29.4412,-92.0613,10.0,-15.48,11144222 
WAVCIS,ioos:station:WAVCIS:CSI03:1,2017-04-02T14:00:00Z,29.4412,-92.0613,10.0,-15.86,11144222 
WAVCIS,ioos:station:WAVCIS:CSI03:1,2017-04-02T15:00:00Z,29.4412,-92.0613,10.0,-16.04,11144222 
WAVCIS,ioos:station:WAVCIS:CSI03:1,2017-04-02T16:00:00Z,29.4412,-92.0613,10.0,-16.49,11144222 
WAVCIS,ioos:station:WAVCIS:CSI03:1,2017-04-02T17:00:00Z,29.4412,-92.0613,10.0,-15.91,11144222 
WAVCIS,ioos:station:WAVCIS:CSI03:1,2017-04-02T18:00:00Z,29.4412,-92.0613,10.0,-16.01,11144222 
WAVCIS,ioos:station:WAVCIS:CSI03:1,2017-04-02T19:00:00Z,29.4412,-92.0613,10.0,-14.91,11144222 
WAVCIS,ioos:station:WAVCIS:CSI03:1,2017-04-02T20:00:00Z,29.4412,-92.0613,10.0,-18.35,11144222 
WAVCIS,ioos:station:WAVCIS:CSI03:1,2017-04-02T21:00:00Z,29.4412,-92.0613,10.0,-15.29,11144222 
WAVCIS,ioos:station:WAVCIS:CSI03:1,2017-04-02T22:00:00Z,29.4412,-92.0613,10.0,-14.16,11144222 
WAVCIS,ioos:station:WAVCIS:CSI03:1,2017-04-02T23:00:00Z,29.4412,-92.0613,10.0,-13.86,11144222 
WAVCIS,ioos:station:WAVCIS:CSI03:1,2017-04-03T00:00:00Z,29.4412,-92.0613,10.0,-13.88,11144222 
WAVCIS,ioos:station:WAVCIS:CSI03:1,2017-04-03T01:00:00Z,29.4412,-92.0613,10.0,-13.97,11144222 
WAVCIS,ioos:station:WAVCIS:CSI03:1,2017-04-03T02:00:00Z,29.4412,-92.0613,10.0,-12.6,11144222 
WAVCIS,ioos:station:WAVCIS:CSI03:1,2017-04-03T03:00:00Z,29.4412,-92.0613,10.0,-12.42,11144222 
WAVCIS,ioos:station:WAVCIS:CSI03:1,2017-04-03T04:00:00Z,29.4412,-92.0613,10.0,-13.25,11144222 
WAVCIS,ioos:station:WAVCIS:CSI03:1,2017-04-03T05:00:00Z,29.4412,-92.0613,10.0,-12.58,11144222 
WAVCIS,ioos:station:WAVCIS:CSI03:1,2017-04-03T06:00:00Z,29.4412,-92.0613,10.0,-11.35,11144222 
WAVCIS,ioos:station:WAVCIS:CSI03:1,2017-04-03T07:00:00Z,29.4412,-92.0613,10.0,-12.13,11144222 
WAVCIS,ioos:station:WAVCIS:CSI03:1,2017-04-03T08:00:00Z,29.4412,-92.0613,10.0,-11.96,11144222 
WAVCIS,ioos:station:WAVCIS:CSI03:1,2017-04-03T09:00:00Z,29.4412,-92.0613,10.0,-12.74,11144222 
WAVCIS,ioos:station:WAVCIS:CSI03:1,2017-04-03T10:00:00Z,29.4412,-92.0613,10.0,-12.67,11144222 
WAVCIS,ioos:station:WAVCIS:CSI03:1,2017-04-03T11:00:00Z,29.4412,-92.0613,10.0,-12.55,11144222 
WAVCIS,ioos:station:WAVCIS:CSI03:1,2017-04-03T12:00:00Z,29.4412,-92.0613,10.0,-12.38,11144222 
WAVCIS,ioos:station:WAVCIS:CSI03:1,2017-04-03T13:00:00Z,29.4412,-92.0613,10.0,-12.53,11144222 
WAVCIS,ioos:station:WAVCIS:CSI03:1,2017-04-03T14:00:00Z,29.4412,-92.0613,10.0,-13.12,11144222 
WAVCIS,ioos:station:WAVCIS:CSI03:1,2017-04-03T15:00:00Z,29.4412,-92.0613,10.0,-14.67,11144222 
WAVCIS,ioos:station:WAVCIS:CSI03:1,2017-04-03T16:00:00Z,29.4412,-92.0613,10.0,-15.65,11144222 
WAVCIS,ioos:station:WAVCIS:CSI03:1,2017-04-03T17:00:00Z,29.4412,-92.0613,10.0,-16.53,11144222 
WAVCIS,ioos:station:WAVCIS:CSI03:1,2017-04-03T18:00:00Z,29.4412,-92.0613,10.0,-15.21,11144222 
WAVCIS,ioos:station:WAVCIS:CSI03:1,2017-04-03T19:00:00Z,29.4412,-92.0613,10.0,-15.84,11144222 
WAVCIS,ioos:station:WAVCIS:CSI03:1,2017-04-03T20:00:00Z,29.4412,-92.0613,10.0,-14.66,11144222 
WAVCIS,ioos:station:WAVCIS:CSI03:1,2017-04-03T21:00:00Z,29.4412,-92.0613,10.0,-14.29,11144222 
WAVCIS,ioos:station:WAVCIS:CSI03:1,2017-04-03T22:00:00Z,29.4412,-92.0613,10.0,-14.38,11144222 
WAVCIS,ioos:station:WAVCIS:CSI03:1,2017-04-03T23:00:00Z,29.4412,-92.0613,10.0,-14.89,11144222 
WAVCIS,ioos:station:WAVCIS:CSI03:1,2017-04-04T00:00:00Z,29.4412,-92.0613,10.0,-15.2,11144222 
WAVCIS,ioos:station:WAVCIS:CSI03:1,2017-04-04T01:00:00Z,29.4412,-92.0613,10.0,-15.64,11144222 
WAVCIS,ioos:station:WAVCIS:CSI03:1,2017-04-04T02:00:00Z,29.4412,-92.0613,10.0,-15.67,11144222 
WAVCIS,ioos:station:WAVCIS:CSI03:1,2017-04-04T03:00:00Z,29.4412,-92.0613,10.0,-12.97,11144222 
WAVCIS,ioos:station:WAVCIS:CSI03:1,2017-04-04T04:00:00Z,29.4412,-92.0613,10.0,-15.18,11144222 
WAVCIS,ioos:station:WAVCIS:CSI03:1,2017-04-04T05:00:00Z,29.4412,-92.0613,10.0,-14.86,11144222 
WAVCIS,ioos:station:WAVCIS:CSI03:1,2017-04-04T06:00:00Z,29.4412,-92.0613,10.0,-15.19,11144222 
WAVCIS,ioos:station:WAVCIS:CSI03:1,2017-04-04T07:00:00Z,29.4412,-92.0613,10.0,-15.39,11144222 
WAVCIS,ioos:station:WAVCIS:CSI03:1,2017-04-04T08:00:00Z,29.4412,-92.0613,10.0,-14.69,11144222 
WAVCIS,ioos:station:WAVCIS:CSI03:1,2017-04-04T09:00:00Z,29.4412,-92.0613,10.0,-14.22,11144222 
WAVCIS,ioos:station:WAVCIS:CSI03:1,2017-04-04T10:00:00Z,29.4412,-92.0613,10.0,-15.18,11144222 
WAVCIS,ioos:station:WAVCIS:CSI03:1,2017-04-04T11:00:00Z,29.4412,-92.0613,10.0,-14.58,11144222 
WAVCIS,ioos:station:WAVCIS:CSI03:1,2017-04-04T12:00:00Z,29.4412,-92.0613,10.0,-15.28,11144222 
WAVCIS,ioos:station:WAVCIS:CSI03:1,2017-04-04T13:00:00Z,29.4412,-92.0613,10.0,-15.1,11144222 
WAVCIS,ioos:station:WAVCIS:CSI03:1,2017-04-04T14:00:00Z,29.4412,-92.0613,10.0,-13.62,11144222 
WAVCIS,ioos:station:WAVCIS:CSI03:1,2017-04-04T15:00:00Z,29.4412,-92.0613,10.0,-14.19,11144222 
WAVCIS,ioos:station:WAVCIS:CSI03:1,2017-04-04T16:00:00Z,29.4412,-92.0613,10.0,-14.73,11144222 
WAVCIS,ioos:station:WAVCIS:CSI03:1,2017-04-04T17:00:00Z,29.4412,-92.0613,10.0,-14.95,11144222 
WAVCIS,ioos:station:WAVCIS:CSI03:1,2017-04-04T18:00:00Z,29.4412,-92.0613,10.0,-14.66,11144222 
WAVCIS,ioos:station:WAVCIS:CSI03:1,2017-04-04T19:00:00Z,29.4412,-92.0613,10.0,-14.76,11144222 
WAVCIS,ioos:station:WAVCIS:CSI03:1,2017-04-04T20:00:00Z,29.4412,-92.0613,10.0,-14.19,11144222 
WAVCIS,ioos:station:WAVCIS:CSI03:1,2017-04-04T21:00:00Z,29.4412,-92.0613,10.0,-13.84,11144222 
WAVCIS,ioos:station:WAVCIS:CSI03:1,2017-04-04T22:00:00Z,29.4412,-92.0613,10.0,-13.16,11144222 
WAVCIS,ioos:station:WAVCIS:CSI03:1,2017-04-04T23:00:00Z,29.4412,-92.0613,10.0,-13.46,11144222 
WAVCIS,ioos:station:WAVCIS:CSI03:1,2017-04-05T00:00:00Z,29.4412,-92.0613,10.0,-13.29,11144222 
WAVCIS,ioos:station:WAVCIS:CSI03:1,2017-04-05T01:00:00Z,29.4412,-92.0613,10.0,-12.89,11144222 
WAVCIS,ioos:station:WAVCIS:CSI03:1,2017-04-05T02:00:00Z,29.4412,-92.0613,10.0,-12.72,11144222 
WAVCIS,ioos:station:WAVCIS:CSI03:1,2017-04-05T03:00:00Z,29.4412,-92.0613,10.0,-13.37,11144222 
WAVCIS,ioos:station:WAVCIS:CSI03:1,2017-04-05T04:00:00Z,29.4412,-92.0613,10.0,-13.33,11144222 
WAVCIS,ioos:station:WAVCIS:CSI03:1,2017-04-05T05:00:00Z,29.4412,-92.0613,10.0,-12.71,11144222 
WAVCIS,ioos:station:WAVCIS:CSI03:1,2017-04-05T06:00:00Z,29.4412,-92.0613,10.0,-12.78,11144222 
WAVCIS,ioos:station:WAVCIS:CSI03:1,2017-04-05T07:00:00Z,29.4412,-92.0613,10.0,-12.83,11144222 
WAVCIS,ioos:station:WAVCIS:CSI03:1,2017-04-05T08:00:00Z,29.4412,-92.0613,10.0,-12.94,11144222 
WAVCIS,ioos:station:WAVCIS:CSI03:1,2017-04-05T09:00:00Z,29.4412,-92.0613,10.0,-12.16,11144222 
WAVCIS,ioos:station:WAVCIS:CSI03:1,2017-04-05T10:00:00Z,29.4412,-92.0613,10.0,-11.98,11144222 
WAVCIS,ioos:station:WAVCIS:CSI03:1,2017-04-05T11:00:00Z,29.4412,-92.0613,10.0,-12.42,11144222 
WAVCIS,ioos:station:WAVCIS:CSI03:1,2017-04-05T12:00:00Z,29.4412,-92.0613,10.0,-12.56,11144222 
WAVCIS,ioos:station:WAVCIS:CSI03:1,2017-04-05T13:00:00Z,29.4412,-92.0613,10.0,-12.62,11144222 
WAVCIS,ioos:station:WAVCIS:CSI03:1,2017-04-05T14:00:00Z,29.4412,-92.0613,10.0,-12.53,11144222 
WAVCIS,ioos:station:WAVCIS:CSI03:1,2017-04-05T15:00:00Z,29.4412,-92.0613,10.0,-12.08,11144222 
WAVCIS,ioos:station:WAVCIS:CSI03:1,2017-04-05T16:00:00Z,29.4412,-92.0613,10.0,-12.14,11144222 
WAVCIS,ioos:station:WAVCIS:CSI03:1,2017-04-05T17:00:00Z,29.4412,-92.0613,10.0,-12.51,11144222 
WAVCIS,ioos:station:WAVCIS:CSI03:1,2017-04-05T18:00:00Z,29.4412,-92.0613,10.0,-13.7,11144222 
WAVCIS,ioos:station:WAVCIS:CSI03:1,2017-04-05T19:00:00Z,29.4412,-92.0613,10.0,-12.56,11144222 
WAVCIS,ioos:station:WAVCIS:CSI03:1,2017-04-05T20:00:00Z,29.4412,-92.0613,10.0,-12.82,11144222 
WAVCIS,ioos:station:WAVCIS:CSI03:1,2017-04-05T21:00:00Z,29.4412,-92.0613,10.0,-12.92,11144222 
WAVCIS,ioos:station:WAVCIS:CSI03:1,2017-04-05T22:00:00Z,29.4412,-92.0613,10.0,-13.03,11144222 
WAVCIS,ioos:station:WAVCIS:CSI03:1,2017-04-05T23:00:00Z,29.4412,-92.0613,10.0,-13.02,11144222 
WAVCIS,ioos:station:WAVCIS:CSI03:1,2017-04-06T00:00:00Z,29.4412,-92.0613,10.0,-13.23,11144222 
WAVCIS,ioos:station:WAVCIS:CSI03:1,2017-04-06T01:00:00Z,29.4412,-92.0613,10.0,-10.65,11144222 
WAVCIS,ioos:station:WAVCIS:CSI03:1,2017-04-06T02:00:00Z,29.4412,-92.0613,10.0,-9.92,11144222 
WAVCIS,ioos:station:WAVCIS:CSI03:1,2017-04-06T03:00:00Z,29.4412,-92.0613,10.0,-9.97,11144222 
WAVCIS,ioos:station:WAVCIS:CSI03:1,2017-04-06T04:00:00Z,29.4412,-92.0613,10.0,-10.3,11144222 
WAVCIS,ioos:station:WAVCIS:CSI03:1,2017-04-06T05:00:00Z,29.4412,-92.0613,10.0,-10.18,11144222 
WAVCIS,ioos:station:WAVCIS:CSI03:1,2017-04-06T06:00:00Z,29.4412,-92.0613,10.0,-10.28,11144222 
WAVCIS,ioos:station:WAVCIS:CSI03:1,2017-04-06T07:00:00Z,29.4412,-92.0613,10.0,-10.08,11144222 
WAVCIS,ioos:station:WAVCIS:CSI03:1,2017-04-06T08:00:00Z,29.4412,-92.0613,10.0,-10.24,11144222 
WAVCIS,ioos:station:WAVCIS:CSI03:1,2017-04-06T09:00:00Z,29.4412,-92.0613,10.0,-10.61,11144222 
WAVCIS,ioos:station:WAVCIS:CSI03:1,2017-04-06T10:00:00Z,29.4412,-92.0613,10.0,-10.55,11144222 
WAVCIS,ioos:station:WAVCIS:CSI03:1,2017-04-06T11:00:00Z,29.4412,-92.0613,10.0,-10.78,11144222 
WAVCIS,ioos:station:WAVCIS:CSI03:1,2017-04-06T12:00:00Z,29.4412,-92.0613,10.0,-10.97,11144222 
WAVCIS,ioos:station:WAVCIS:CSI03:1,2017-04-06T13:00:00Z,29.4412,-92.0613,10.0,-10.53,11144222 
WAVCIS,ioos:station:WAVCIS:CSI03:1,2017-04-06T14:00:00Z,29.4412,-92.0613,10.0,-10.82,11144222 
WAVCIS,ioos:station:WAVCIS:CSI03:1,2017-04-06T15:00:00Z,29.4412,-92.0613,10.0,-12.14,11144222 
WAVCIS,ioos:station:WAVCIS:CSI03:1,2017-04-06T16:00:00Z,29.4412,-92.0613,10.0,-11.7,11144222 
WAVCIS,ioos:station:WAVCIS:CSI03:1,2017-04-06T17:00:00Z,29.4412,-92.0613,10.0,-11.78,11144222 
WAVCIS,ioos:station:WAVCIS:CSI03:1,2017-04-06T18:00:00Z,29.4412,-92.0613,10.0,-11.92,11144222 
WAVCIS,ioos:station:WAVCIS:CSI03:1,2017-04-06T19:00:00Z,29.4412,-92.0613,10.0,-11.74,11144222 
WAVCIS,ioos:station:WAVCIS:CSI03:1,2017-04-06T20:00:00Z,29.4412,-92.0613,10.0,-11.94,11144222 
WAVCIS,ioos:station:WAVCIS:CSI03:1,2017-04-06T21:00:00Z,29.4412,-92.0613,10.0,-11.28,11144222 
WAVCIS,ioos:station:WAVCIS:CSI03:1,2017-04-06T22:00:00Z,29.4412,-92.0613,10.0,-11.52,11144222 
WAVCIS,ioos:station:WAVCIS:CSI03:1,2017-04-06T23:00:00Z,29.4412,-92.0613,10.0,-11.12,11144222 
WAVCIS,ioos:station:WAVCIS:CSI03:1,2017-04-07T00:00:00Z,29.4412,-92.0613,10.0,-11.47,11144222 
WAVCIS,ioos:station:WAVCIS:CSI03:1,2017-04-07T01:00:00Z,29.4412,-92.0613,10.0,-11.92,11144222 
WAVCIS,ioos:station:WAVCIS:CSI03:1,2017-04-07T02:00:00Z,29.4412,-92.0613,10.0,-12.51,11144222 
WAVCIS,ioos:station:WAVCIS:CSI03:1,2017-04-07T03:00:00Z,29.4412,-92.0613,10.0,-12.78,11144222 
WAVCIS,ioos:station:WAVCIS:CSI03:1,2017-04-07T04:00:00Z,29.4412,-92.0613,10.0,-12.97,11144222 
WAVCIS,ioos:station:WAVCIS:CSI03:1,2017-04-07T05:00:00Z,29.4412,-92.0613,10.0,-12.73,11144222 
WAVCIS,ioos:station:WAVCIS:CSI03:1,2017-04-07T06:00:00Z,29.4412,-92.0613,10.0,-12.39,11144222 
WAVCIS,ioos:station:WAVCIS:CSI03:1,2017-04-07T07:00:00Z,29.4412,-92.0613,10.0,-13.01,11144222 
WAVCIS,ioos:station:WAVCIS:CSI03:1,2017-04-07T08:00:00Z,29.4412,-92.0613,10.0,-13.99,11144222 
WAVCIS,ioos:station:WAVCIS:CSI03:1,2017-04-07T09:00:00Z,29.4412,-92.0613,10.0,-14.85,11144222 
WAVCIS,ioos:station:WAVCIS:CSI03:1,2017-04-07T10:00:00Z,29.4412,-92.0613,10.0,-15.51,11144222 
WAVCIS,ioos:station:WAVCIS:CSI03:1,2017-04-07T11:00:00Z,29.4412,-92.0613,10.0,-15.53,11144222 
WAVCIS,ioos:station:WAVCIS:CSI03:1,2017-04-07T12:00:00Z,29.4412,-92.0613,10.0,-14.24,11144222 
WAVCIS,ioos:station:WAVCIS:CSI03:1,2017-04-07T13:00:00Z,29.4412,-92.0613,10.0,-14.09,11144222 
WAVCIS,ioos:station:WAVCIS:CSI03:1,2017-04-07T14:00:00Z,29.4412,-92.0613,10.0,-13.55,11144222 
WAVCIS,ioos:station:WAVCIS:CSI03:1,2017-04-07T15:00:00Z,29.4412,-92.0613,10.0,-13.97,11144222 
WAVCIS,ioos:station:WAVCIS:CSI03:1,2017-04-07T16:00:00Z,29.4412,-92.0613,10.0,-14.43,11144222 
WAVCIS,ioos:station:WAVCIS:CSI03:1,2017-04-07T17:00:00Z,29.4412,-92.0613,10.0,-14.49,11144222 
WAVCIS,ioos:station:WAVCIS:CSI03:1,2017-04-07T18:00:00Z,29.4412,-92.0613,10.0,-14.92,11144222 
WAVCIS,ioos:station:WAVCIS:CSI03:1,2017-04-07T19:00:00Z,29.4412,-92.0613,10.0,-14.76,11144222 
WAVCIS,ioos:station:WAVCIS:CSI03:1,2017-04-07T20:00:00Z,29.4412,-92.0613,10.0,-13.59,11144222 
WAVCIS,ioos:station:WAVCIS:CSI03:1,2017-04-07T21:00:00Z,29.4412,-92.0613,10.0,-13.75,11144222 
WAVCIS,ioos:station:WAVCIS:CSI03:1,2017-04-07T22:00:00Z,29.4412,-92.0613,10.0,-13.99,11144222 
WAVCIS,ioos:station:WAVCIS:CSI03:1,2017-04-07T23:00:00Z,29.4412,-92.0613,10.0,-14.49,11144222 
WAVCIS,ioos:station:WAVCIS:CSI03:1,2017-04-08T00:00:00Z,29.4412,-92.0613,10.0,-14.25,11144222 
WAVCIS,ioos:station:WAVCIS:CSI03:1,2017-04-08T01:00:00Z,29.4412,-92.0613,10.0,-14.89,11144222 
WAVCIS,ioos:station:WAVCIS:CSI03:1,2017-04-08T02:00:00Z,29.4412,-92.0613,10.0,-15.08,11144222 
WAVCIS,ioos:station:WAVCIS:CSI03:1,2017-04-08T03:00:00Z,29.4412,-92.0613,10.0,-14.52,11144222 
WAVCIS,ioos:station:WAVCIS:CSI03:1,2017-04-08T04:00:00Z,29.4412,-92.0613,10.0,-13.96,11144222 
WAVCIS,ioos:station:WAVCIS:CSI03:1,2017-04-08T05:00:00Z,29.4412,-92.0613,10.0,-14.75,11144222 
WAVCIS,ioos:station:WAVCIS:CSI03:1,2017-04-08T06:00:00Z,29.4412,-92.0613,10.0,-14.91,11144222 
WAVCIS,ioos:station:WAVCIS:CSI03:1,2017-04-08T07:00:00Z,29.4412,-92.0613,10.0,-14.86,11144222 
WAVCIS,ioos:station:WAVCIS:CSI03:1,2017-04-08T08:00:00Z,29.4412,-92.0613,10.0,-14.85,11144222 
WAVCIS,ioos:station:WAVCIS:CSI03:1,2017-04-08T09:00:00Z,29.4412,-92.0613,10.0,-14.65,11144222 
WAVCIS,ioos:station:WAVCIS:CSI03:1,2017-04-08T10:00:00Z,29.4412,-92.0613,10.0,-14.4,11144222 
WAVCIS,ioos:station:WAVCIS:CSI03:1,2017-04-08T11:00:00Z,29.4412,-92.0613,10.0,-14.99,11144222 
WAVCIS,ioos:station:WAVCIS:CSI03:1,2017-04-08T12:00:00Z,29.4412,-92.0613,10.0,-14.92,11144222 
WAVCIS,ioos:station:WAVCIS:CSI03:1,2017-04-08T13:00:00Z,29.4412,-92.0613,10.0,-14.76,11144222 
WAVCIS,ioos:station:WAVCIS:CSI03:1,2017-04-08T14:00:00Z,29.4412,-92.0613,10.0,-14.18,11144222 
WAVCIS,ioos:station:WAVCIS:CSI03:1,2017-04-08T15:00:00Z,29.4412,-92.0613,10.0,-14.41,11144222 
WAVCIS,ioos:station:WAVCIS:CSI03:1,2017-04-08T16:00:00Z,29.4412,-92.0613,10.0,-14.04,11144222 
WAVCIS,ioos:station:WAVCIS:CSI03:1,2017-04-08T17:00:00Z,29.4412,-92.0613,10.0,-13.88,11144222 
WAVCIS,ioos:station:WAVCIS:CSI03:1,2017-04-08T18:00:00Z,29.4412,-92.0613,10.0,-14.38,11144222 
WAVCIS,ioos:station:WAVCIS:CSI03:1,2017-04-08T19:00:00Z,29.4412,-92.0613,10.0,-14.69,11144222 
WAVCIS,ioos:station:WAVCIS:CSI03:1,2017-04-08T20:00:00Z,29.4412,-92.0613,10.0,-14.7,11144222 
WAVCIS,ioos:station:WAVCIS:CSI03:1,2017-04-08T21:00:00Z,29.4412,-92.0613,10.0,-14.84,11144222 
WAVCIS,ioos:station:WAVCIS:CSI03:1,2017-04-08T22:00:00Z,29.4412,-92.0613,10.0,-14.76,11144222 
WAVCIS,ioos:station:WAVCIS:CSI03:1,2017-04-08T23:00:00Z,29.4412,-92.0613,10.0,-14.8,11144222 
WAVCIS,ioos:station:WAVCIS:CSI03:1,2017-04-09T00:00:00Z,29.4412,-92.0613,10.0,-14.67,11144222 
WAVCIS,ioos:station:WAVCIS:CSI03:1,2017-04-09T01:00:00Z,29.4412,-92.0613,10.0,-14.54,11144222 
WAVCIS,ioos:station:WAVCIS:CSI03:1,2017-04-09T02:00:00Z,29.4412,-92.0613,10.0,-14.85,11144222 
WAVCIS,ioos:station:WAVCIS:CSI03:1,2017-04-09T03:00:00Z,29.4412,-92.0613,10.0,-15.03,11144222 
WAVCIS,ioos:station:WAVCIS:CSI03:1,2017-04-09T04:00:00Z,29.4412,-92.0613,10.0,-14.8,11144222 
WAVCIS,ioos:station:WAVCIS:CSI03:1,2017-04-09T05:00:00Z,29.4412,-92.0613,10.0,-14.94,11144222 
WAVCIS,ioos:station:WAVCIS:CSI03:1,2017-04-09T06:00:00Z,29.4412,-92.0613,10.0,-14.61,11144222 
WAVCIS,ioos:station:WAVCIS:CSI03:1,2017-04-09T07:00:00Z,29.4412,-92.0613,10.0,-14.17,11144222 
WAVCIS,ioos:station:WAVCIS:CSI03:1,2017-04-09T08:00:00Z,29.4412,-92.0613,10.0,-13.93,11144222 
WAVCIS,ioos:station:WAVCIS:CSI03:1,2017-04-09T09:00:00Z,29.4412,-92.0613,10.0,-14.2,11144222 
WAVCIS,ioos:station:WAVCIS:CSI03:1,2017-04-09T10:00:00Z,29.4412,-92.0613,10.0,-13.91,11144222 
WAVCIS,ioos:station:WAVCIS:CSI03:1,2017-04-09T11:00:00Z,29.4412,-92.0613,10.0,-14.31,11144222 
WAVCIS,ioos:station:WAVCIS:CSI03:1,2017-04-09T12:00:00Z,29.4412,-92.0613,10.0,-14.28,11144222 
WAVCIS,ioos:station:WAVCIS:CSI03:1,2017-04-09T13:00:00Z,29.4412,-92.0613,10.0,-14.55,11144222 
WAVCIS,ioos:station:WAVCIS:CSI03:1,2017-04-09T14:00:00Z,29.4412,-92.0613,10.0,-14.25,11144222 
WAVCIS,ioos:station:WAVCIS:CSI03:1,2017-04-09T15:00:00Z,29.4412,-92.0613,10.0,-14.23,11144222 
WAVCIS,ioos:station:WAVCIS:CSI03:1,2017-04-09T16:00:00Z,29.4412,-92.0613,10.0,-15.08,11144222 
WAVCIS,ioos:station:WAVCIS:CSI03:1,2017-04-09T17:00:00Z,29.4412,-92.0613,10.0,-14.36,11144222 
WAVCIS,ioos:station:WAVCIS:CSI03:1,2017-04-09T18:00:00Z,29.4412,-92.0613,10.0,-14.19,11144222 
WAVCIS,ioos:station:WAVCIS:CSI03:1,2017-04-09T19:00:00Z,29.4412,-92.0613,10.0,-14.37,11144222 
WAVCIS,ioos:station:WAVCIS:CSI03:1,2017-04-09T20:00:00Z,29.4412,-92.0613,10.0,-14.16,11144222 
WAVCIS,ioos:station:WAVCIS:CSI03:1,2017-04-09T21:00:00Z,29.4412,-92.0613,10.0,-14.72,11144222 
WAVCIS,ioos:station:WAVCIS:CSI03:1,2017-04-09T22:00:00Z,29.4412,-92.0613,10.0,-14.65,11144222 
WAVCIS,ioos:station:WAVCIS:CSI03:1,2017-04-09T23:00:00Z,29.4412,-92.0613,10.0,-14.33,11144222 
WAVCIS,ioos:station:WAVCIS:CSI03:1,2017-04-10T00:00:00Z,29.4412,-92.0613,10.0,-15.89,11144222 
WAVCIS,ioos:station:WAVCIS:CSI03:1,2017-04-10T01:00:00Z,29.4412,-92.0613,10.0,-15.27,11144222 
WAVCIS,ioos:station:WAVCIS:CSI03:1,2017-04-10T02:00:00Z,29.4412,-92.0613,10.0,-14.65,11144222 
WAVCIS,ioos:station:WAVCIS:CSI03:1,2017-04-10T03:00:00Z,29.4412,-92.0613,10.0,-13.55,11144222 
WAVCIS,ioos:station:WAVCIS:CSI03:1,2017-04-10T04:00:00Z,29.4412,-92.0613,10.0,-14.41,11144222 
WAVCIS,ioos:station:WAVCIS:CSI03:1,2017-04-10T05:00:00Z,29.4412,-92.0613,10.0,-13.8,11144222 
WAVCIS,ioos:station:WAVCIS:CSI03:1,2017-04-10T06:00:00Z,29.4412,-92.0613,10.0,-13.91,11144222 
WAVCIS,ioos:station:WAVCIS:CSI03:1,2017-04-10T07:00:00Z,29.4412,-92.0613,10.0,-13.91,11144222 
WAVCIS,ioos:station:WAVCIS:CSI03:1,2017-04-10T08:00:00Z,29.4412,-92.0613,10.0,-14.3,11144222 
WAVCIS,ioos:station:WAVCIS:CSI03:1,2017-04-10T09:00:00Z,29.4412,-92.0613,10.0,-14.62,11144222 
WAVCIS,ioos:station:WAVCIS:CSI03:1,2017-04-10T10:00:00Z,29.4412,-92.0613,10.0,-14.35,11144222 
WAVCIS,ioos:station:WAVCIS:CSI03:1,2017-04-10T11:00:00Z,29.4412,-92.0613,10.0,-13.82,11144222 
WAVCIS,ioos:station:WAVCIS:CSI03:1,2017-04-10T12:00:00Z,29.4412,-92.0613,10.0,-14.5,11144222 
WAVCIS,ioos:station:WAVCIS:CSI03:1,2017-04-10T13:00:00Z,29.4412,-92.0613,10.0,-14.55,11144222 
WAVCIS,ioos:station:WAVCIS:CSI03:1,2017-04-10T14:00:00Z,29.4412,-92.0613,10.0,-14.5,11144222 
WAVCIS,ioos:station:WAVCIS:CSI03:1,2017-04-10T15:00:00Z,29.4412,-92.0613,10.0,-14.17,11144222 
WAVCIS,ioos:station:WAVCIS:CSI03:1,2017-04-10T16:00:00Z,29.4412,-92.0613,10.0,-14.13,11144222 
WAVCIS,ioos:station:WAVCIS:CSI03:1,2017-04-10T17:00:00Z,29.4412,-92.0613,10.0,-14.26,11144222 
WAVCIS,ioos:station:WAVCIS:CSI03:1,2017-04-10T18:00:00Z,29.4412,-92.0613,10.0,-14.36,11144222 
WAVCIS,ioos:station:WAVCIS:CSI03:1,2017-04-10T19:00:00Z,29.4412,-92.0613,10.0,-13.68,11144222 
WAVCIS,ioos:station:WAVCIS:CSI03:1,2017-04-10T20:00:00Z,29.4412,-92.0613,10.0,-14.32,11144222 
WAVCIS,ioos:station:WAVCIS:CSI03:1,2017-04-10T21:00:00Z,29.4412,-92.0613,10.0,-13.71,11144222 
WAVCIS,ioos:station:WAVCIS:CSI03:1,2017-04-10T22:00:00Z,29.4412,-92.0613,10.0,-13.33,11144222 
WAVCIS,ioos:station:WAVCIS:CSI03:1,2017-04-10T23:00:00Z,29.4412,-92.0613,10.0,-14.01,11144222 
WAVCIS,ioos:station:WAVCIS:CSI03:1,2017-04-11T00:00:00Z,29.4412,-92.0613,10.0,-13.46,11144222 
WAVCIS,ioos:station:WAVCIS:CSI03:1,2017-04-11T01:00:00Z,29.4412,-92.0613,10.0,-13.74,11144222 
WAVCIS,ioos:station:WAVCIS:CSI03:1,2017-04-11T02:00:00Z,29.4412,-92.0613,10.0,-13.46,11144222 
WAVCIS,ioos:station:WAVCIS:CSI03:1,2017-04-11T03:00:00Z,29.4412,-92.0613,10.0,-13.02,11144222 
WAVCIS,ioos:station:WAVCIS:CSI03:1,2017-04-11T04:00:00Z,29.4412,-92.0613,10.0,-12.76,11144222 
WAVCIS,ioos:station:WAVCIS:CSI03:1,2017-04-11T05:00:00Z,29.4412,-92.0613,10.0,-12.93,11144222 
WAVCIS,ioos:station:WAVCIS:CSI03:1,2017-04-11T06:00:00Z,29.4412,-92.0613,10.0,-13.34,11144222 
WAVCIS,ioos:station:WAVCIS:CSI03:1,2017-04-11T07:00:00Z,29.4412,-92.0613,10.0,-13.32,11144222 
WAVCIS,ioos:station:WAVCIS:CSI03:1,2017-04-11T08:00:00Z,29.4412,-92.0613,10.0,-13.56,11144222 
WAVCIS,ioos:station:WAVCIS:CSI03:1,2017-04-11T09:00:00Z,29.4412,-92.0613,10.0,-13.09,11144222 
WAVCIS,ioos:station:WAVCIS:CSI03:1,2017-04-11T10:00:00Z,29.4412,-92.0613,10.0,-13.38,11144222 